Wind_Speed
6 7 8 9 10 10 11 12 13 14 16 17 18 20 21 22 24 25 26 27 29 30 31 31 32 32 32 33 33 33 32 32 32 34 35 35 35 36 36 36 36 34 32
7 8 9 10 10 11 12 13 15 16 18 19 21 22 24 25 27 28 29 30 31 33 34 35 36 36 37 37 38 38 38 38 37 37 38 39 39 38 38 39 40 40 38
8 9 9 10 11 12 13 15 17 19 21 23 24 25 27 28 29 30 31 32 33 34 36 37 38 40 41 42 42 43 43 43 43 43 43 43 43 43 42 42 42 43 43
9 9 10 11 13 14 16 19 21 23 24 26 27 28 29 29 30 31 33 34 35 36 37 39 40 42 43 45 46 47 48 48 48 48 49 49 49 48 48 46 45 45 46
10 11 12 14 16 18 20 22 24 25 26 27 28 29 30 30 32 33 35 36 38 39 41 42 44 45 47 48 49 50 51 52 53 54 54 55 55 55 54 53 51 49 49
11 13 15 17 19 21 23 24 26 27 27 28 29 30 31 33 34 36 37 39 41 43 45 47 48 50 51 53 54 55 55 56 56 58 59 60 60 61 61 60 58 55 54
13 15 17 20 21 23 25 26 27 27 28 29 30 32 33 35 37 39 41 43 45 47 49 51 53 54 56 58 59 60 61 61 61 62 63 64 66 66 67 67 66 63 60
17 19 21 23 25 26 27 27 28 29 30 31 33 34 36 38 40 42 44 46 48 51 53 55 57 60 62 64 65 67 68 69 69 70 70 70 70 71 72 72 72 71 68
20 22 24 25 26 27 28 29 30 31 33 34 36 37 39 41 43 45 48 50 52 55 57 60 63 66 68 71 73 75 77 78 79 79 79 79 79 78 78 78 77 77 76
22 24 25 26 27 28 29 30 32 33 35 37 39 41 43 45 47 49 51 53 56 59 62 65 68 71 75 78 81 84 87 89 91 92 91 91 90 89 88 86 85 83 82
23 24 25 26 27 29 30 32 34 36 38 40 42 44 46 47 49 51 54 56 59 62 66 69 73 76 80 85 89 93 97 100 102 103 102 102 101 99 98 96 93 91 88
22 23 24 26 28 30 32 34 36 38 40 43 45 46 48 50 51 54 56 59 62 66 69 73 77 81 86 91 96 101 106 109 111 113 113 113 113 112 110 107 104 101 97
22 23 25 27 29 32 34 36 38 40 43 45 47 48 50 52 54 56 59 62 65 68 72 76 81 86 91 97 102 107 110 113 113 113 112 112 113 115 116 117 116 112 108
21 23 25 27 30 33 35 37 39 42 44 46 48 50 51 53 55 58 60 63 67 70 75 79 84 89 96 101 106 108 109 108 105 102 99 98 100 103 108 113 118 120 118
20 23 25 28 31 33 35 37 39 41 43 45 47 49 51 53 56 59 61 64 68 72 77 82 87 93 99 103 105 104 101 98 95 93 92 91 91 92 95 100 108 117 122
21 24 27 29 31 33 35 37 39 41 43 45 47 49 50 53 56 59 62 65 70 74 79 85 91 96 100 101 99 96 92 90 89 89 89 88 88 89 90 93 98 105 115
23 26 28 30 32 34 35 38 40 41 43 46 48 49 51 54 56 59 63 67 71 76 82 88 94 97 98 95 91 87 85 84 83 82 81 80 81 83 87 90 94 98 104
25 27 30 31 33 34 36 38 40 43 45 47 50 51 53 55 57 61 64 69 73 79 85 91 95 95 93 89 84 81 79 78 76 75 73 71 70 72 77 84 91 95 98
25 28 30 32 34 35 38 40 42 44 47 50 52 54 55 57 60 63 66 71 76 81 88 92 94 92 88 83 80 77 74 73 71 69 67 65 63 63 66 71 81 91 97
25 28 31 34 36 38 40 42 44 46 49 52 55 57 59 60 62 65 69 73 78 84 89 92 90 87 83 80 78 75 71 69 67 64 62 60 59 58 60 63 69 80 91
26 30 33 35 38 41 43 45 47 49 52 55 58 60 62 63 65 67 71 75 81 86 90 90 87 83 79 78 76 72 67 64 62 59 57 56 56 55 55 58 63 70 81
28 31 34 37 40 43 46 48 50 52 54 57 60 63 65 66 68 70 73 78 83 87 89 87 84 80 77 76 75 73 67 59 54 52 51 52 52 51 50 52 58 65 73
29 32 35 38 41 45 48 51 53 55 57 59 62 66 68 69 70 72 75 80 84 87 87 84 81 78 75 73 73 72 68 61 53 45 43 44 46 46 45 44 50 59 69
31 34 37 40 43 46 49 53 55 57 59 61 64 67 70 71 72 74 77 81 85 86 85 81 78 76 75 72 69 67 65 61 56 47 37 36 39 40 40 38 41 50 63
34 37 40 42 45 48 50 54 57 59 61 63 65 68 71 73 74 75 78 82 84 85 82 78 75 74 73 71 67 63 59 56 54 51 42 34 32 34 36 35 33 40 55
38 40 42 44 47 49 52 54 57 60 63 64 67 69 72 74 75 77 79 82 84 83 79 76 73 72 71 69 66 62 57 53 50 48 44 37 31 28 30 31 30 32 44
Wind_Direction
8 355 347 342 336 332 327 324 321 319 317 315 313 311 309 307 305 303 302 301 299 298 297 296 294 292 290 288 286 282 279 276 273 271 270 267 264 261 258 255 253 251 249
353 347 342 337 332 327 323 320 318 316 314 312 310 307 305 303 302 300 299 298 297 296 295 293 292 291 289 287 284 282 279 276 273 271 269 267 264 261 258 254 251 250 248
346 342 338 333 328 324 320 318 316 314 312 310 308 306 304 302 301 299 298 297 296 295 295 294 293 291 290 288 285 283 280 277 274 271 268 266 265 262 258 255 251 248 247
340 337 333 328 324 321 318 316 314 312 311 309 307 305 304 303 303 302 301 299 298 297 296 294 293 292 290 288 286 283 281 278 275 271 268 265 263 261 259 255 252 248 245
331 329 326 323 319 317 315 314 312 311 309 307 306 305 304 304 304 304 303 302 301 300 298 297 295 293 291 288 286 283 281 278 276 273 269 266 263 260 258 255 252 249 246
322 320 318 316 314 312 311 310 309 309 308 307 306 305 305 305 306 305 305 303 302 301 300 299 297 295 293 291 288 285 282 279 276 273 270 267 263 260 257 254 251 249 247
316 314 313 312 310 309 309 308 308 308 308 307 307 306 306 306 306 306 305 304 303 302 301 299 298 296 293 290 288 285 282 279 276 273 270 268 264 260 257 254 251 248 246
313 313 312 312 311 311 310 310 309 309 309 309 308 308 307 307 307 306 305 304 303 302 301 300 298 296 295 292 289 286 283 280 276 272 269 266 263 261 258 254 251 248 245
312 313 313 313 313 313 313 312 311 310 310 310 309 309 308 308 307 306 306 305 304 303 302 301 300 299 297 295 292 290 287 283 279 275 270 266 261 258 256 254 251 247 244
312 313 314 314 315 315 315 314 313 312 311 310 310 310 309 308 308 308 307 306 305 305 304 303 302 301 300 298 296 293 290 287 283 279 274 269 263 258 254 252 250 247 244
314 315 317 318 319 319 318 317 316 315 313 312 311 310 310 309 308 308 307 307 306 305 305 304 303 303 302 300 298 296 293 290 286 281 276 271 266 261 255 251 248 246 243
317 320 322 324 324 323 322 321 319 317 316 314 313 312 310 310 309 308 308 307 306 306 305 305 305 304 303 302 300 297 294 291 287 283 278 273 268 262 257 253 248 245 242
323 326 328 328 328 327 325 324 322 320 318 316 314 313 311 310 309 309 308 308 307 307 307 306 306 305 304 303 300 298 294 291 287 283 279 274 269 263 258 253 248 244 240
328 332 333 333 331 330 328 327 325 323 320 318 315 313 312 310 309 309 308 308 308 308 308 307 307 306 305 304 301 298 294 290 286 282 278 274 269 264 258 253 247 243 239
335 336 336 335 333 332 331 329 327 325 323 320 317 315 313 311 310 309 309 309 309 309 309 309 309 308 307 305 302 299 295 291 287 282 278 273 268 263 257 252 247 242 237
340 339 337 335 334 334 333 332 331 329 327 324 321 318 315 313 312 312 311 311 311 312 312 312 311 311 309 307 304 301 297 294 289 285 280 274 269 263 257 251 246 241 237
339 336 334 334 335 335 335 334 333 333 331 329 327 323 320 317 315 314 314 314 314 314 314 315 315 314 312 310 307 304 300 297 293 289 284 278 271 264 257 251 246 241 236
338 336 334 334 335 335 335 335 335 335 335 334 332 329 325 322 319 317 317 316 317 317 318 318 318 317 315 312 309 307 304 300 297 293 288 282 275 267 259 252 245 240 236
339 338 338 337 337 337 336 336 336 336 337 336 335 333 329 326 323 321 320 319 320 320 321 322 322 320 317 315 313 311 308 304 300 296 290 285 278 270 262 253 246 239 235
342 342 342 341 340 339 338 337 336 337 337 337 336 335 333 330 326 324 323 322 323 324 325 325 324 322 319 318 316 315 312 309 304 299 294 288 281 274 265 255 246 239 233
346 345 345 344 343 342 340 339 337 337 337 337 337 336 335 332 330 327 326 326 327 328 328 328 327 324 322 320 319 318 316 313 308 302 297 291 286 279 269 258 247 239 232
345 345 345 344 343 343 342 341 340 338 337 336 337 337 336 334 332 330 329 329 330 331 331 330 329 327 325 324 322 321 320 318 312 307 300 295 290 284 275 261 248 239 232
341 343 343 343 343 342 342 341 340 339 337 336 336 337 337 336 334 333 332 332 333 334 334 332 330 329 328 327 326 325 324 323 319 314 306 298 293 289 281 267 250 238 230
337 339 341 342 342 341 341 340 340 339 338 337 337 337 337 337 336 335 334 335 336 336 335 334 332 331 331 331 329 328 327 327 325 324 318 306 298 293 287 275 256 239 229
334 336 338 339 340 340 339 339 339 338 338 337 337 337 337 338 337 336 336 337 338 338 337 335 333 333 333 333 332 331 331 330 329 328 329 321 305 296 291 283 267 244 230
330 333 335 336 337 338 338 337 337 337 337 338 338 338 338 338 338 338 338 339 340 340 338 337 335 335 335 335 334 334 334 334 334 332 331 330 320 304 292 286 276 254 233
Height
5887 5886 5885 5884 5884 5883 5882 5881 5879 5878 5877 5876 5874 5873 5872 5870 5869 5868 5867 5865 5864 5863 5863 5862 5862 5862 5862 5861 5861 5862 5862 5862 5863 5862 5861 5862 5862 5864 5865 5867 5867 5868 5869
5886 5885 5884 5883 5882 5881 5880 5878 5877 5875 5874 5872 5871 5869 5868 5866 5865 5863 5862 5861 5859 5858 5857 5856 5855 5855 5854 5854 5854 5854 5855 5855 5856 5856 5855 5855 5856 5856 5857 5859 5860 5861 5863
5885 5884 5883 5882 5880 5879 5877 5876 5874 5872 5870 5868 5866 5865 5863 5861 5860 5858 5856 5855 5853 5852 5851 5849 5848 5847 5846 5846 5846 5846 5846 5847 5847 5848 5848 5848 5848 5849 5850 5851 5852 5854 5855
5884 5883 5881 5880 5878 5876 5875 5873 5871 5868 5866 5864 5862 5860 5858 5856 5854 5852 5850 5848 5847 5845 5844 5842 5841 5840 5838 5837 5836 5836 5836 5836 5837 5838 5838 5839 5839 5839 5840 5842 5843 5845 5846
5883 5881 5880 5878 5876 5874 5871 5869 5867 5864 5862 5859 5857 5855 5852 5850 5848 5845 5843 5841 5838 5836 5835 5833 5832 5830 5829 5828 5827 5826 5825 5825 5826 5826 5826 5827 5828 5828 5829 5831 5833 5835 5837
5881 5879 5878 5875 5873 5871 5868 5866 5863 5860 5858 5855 5852 5849 5846 5844 5841 5838 5835 5832 5830 5827 5825 5822 5820 5819 5817 5816 5814 5814 5813 5813 5814 5813 5812 5813 5814 5815 5816 5818 5821 5824 5826
5879 5877 5875 5872 5870 5867 5864 5862 5859 5856 5853 5850 5846 5843 5840 5837 5834 5830 5827 5824 5821 5817 5814 5811 5809 5806 5804 5802 5801 5799 5799 5798 5799 5798 5798 5798 5797 5799 5800 5802 5806 5810 5813
5876 5873 5871 5868 5865 5863 5860 5857 5853 5850 5847 5843 5840 5836 5833 5829 5825 5822 5818 5814 5810 5807 5803 5800 5796 5793 5790 5787 5784 5783 5782 5781 5781 5781 5781 5781 5779 5780 5782 5784 5788 5793 5797
5872 5869 5867 5864 5861 5858 5854 5851 5848 5844 5841 5837 5833 5829 5825 5821 5817 5812 5808 5804 5799 5795 5791 5786 5782 5777 5773 5768 5764 5761 5760 5758 5757 5757 5758 5759 5758 5759 5761 5763 5767 5773 5779
5869 5866 5863 5859 5856 5853 5849 5845 5842 5838 5834 5830 5826 5821 5817 5812 5807 5802 5797 5792 5787 5782 5777 5772 5766 5760 5754 5748 5742 5737 5733 5729 5727 5727 5728 5728 5730 5733 5736 5740 5744 5750 5757
5865 5862 5858 5855 5851 5847 5843 5839 5835 5831 5827 5822 5818 5813 5808 5803 5798 5792 5787 5781 5775 5769 5763 5757 5750 5742 5735 5726 5717 5709 5702 5696 5692 5690 5690 5691 5693 5698 5704 5710 5716 5723 5732
5860 5857 5854 5850 5846 5842 5838 5834 5829 5824 5819 5814 5809 5804 5798 5793 5788 5782 5776 5770 5763 5756 5749 5741 5733 5724 5714 5704 5693 5681 5670 5660 5652 5648 5647 5647 5650 5657 5664 5673 5683 5693 5703
5856 5853 5849 5845 5841 5837 5832 5827 5822 5817 5812 5806 5801 5795 5789 5783 5777 5771 5764 5757 5750 5743 5735 5726 5716 5705 5693 5680 5667 5652 5637 5624 5612 5604 5600 5598 5601 5608 5617 5629 5642 5655 5669
5853 5849 5844 5840 5836 5831 5826 5821 5816 5810 5804 5798 5792 5786 5780 5773 5767 5760 5753 5746 5738 5730 5720 5710 5698 5685 5671 5654 5637 5619 5602 5586 5574 5565 5560 5557 5556 5560 5568 5580 5594 5611 5629
5849 5845 5841 5836 5831 5826 5821 5815 5810 5804 5798 5791 5785 5778 5771 5764 5757 5750 5742 5734 5725 5716 5705 5693 5679 5663 5645 5626 5605 5585 5568 5552 5540 5530 5525 5522 5521 5522 5527 5535 5547 5564 5584
5845 5841 5837 5832 5827 5821 5816 5810 5804 5798 5791 5785 5778 5771 5763 5755 5747 5739 5730 5721 5711 5700 5688 5673 5657 5639 5618 5596 5575 5554 5536 5521 5509 5498 5491 5488 5486 5487 5491 5498 5507 5520 5539
5841 5837 5832 5827 5822 5816 5811 5805 5799 5792 5785 5778 5770 5762 5754 5745 5737 5728 5718 5707 5696 5683 5669 5652 5633 5611 5589 5567 5547 5527 5510 5494 5479 5468 5459 5454 5452 5453 5456 5463 5473 5484 5498
5838 5833 5828 5823 5817 5811 5806 5799 5792 5785 5778 5770 5761 5753 5744 5734 5725 5715 5704 5692 5680 5665 5649 5630 5608 5586 5562 5541 5522 5504 5486 5470 5455 5442 5432 5426 5422 5421 5424 5429 5438 5450 5464
5834 5829 5824 5818 5812 5806 5799 5793 5785 5778 5770 5761 5752 5743 5733 5723 5712 5701 5689 5677 5662 5646 5627 5606 5583 5559 5538 5517 5499 5483 5465 5448 5433 5419 5409 5402 5397 5395 5396 5398 5405 5417 5433
5830 5824 5818 5812 5806 5799 5792 5785 5777 5769 5761 5752 5742 5732 5722 5711 5699 5687 5674 5660 5644 5626 5605 5582 5559 5536 5514 5495 5477 5461 5445 5428 5412 5399 5388 5380 5375 5372 5371 5373 5377 5387 5401
5824 5818 5812 5806 5799 5793 5785 5777 5769 5760 5751 5742 5732 5721 5710 5698 5686 5673 5658 5643 5625 5606 5584 5561 5538 5517 5496 5475 5457 5442 5429 5411 5394 5381 5369 5361 5355 5350 5348 5349 5353 5361 5372
5818 5813 5806 5800 5793 5785 5778 5769 5760 5751 5742 5732 5721 5710 5698 5685 5672 5658 5643 5626 5607 5586 5564 5541 5519 5498 5479 5457 5437 5421 5409 5399 5383 5367 5354 5344 5336 5331 5328 5327 5330 5337 5347
5813 5807 5800 5793 5786 5778 5769 5761 5752 5742 5732 5722 5710 5698 5685 5672 5658 5643 5627 5609 5589 5568 5546 5523 5502 5481 5464 5445 5422 5402 5387 5376 5368 5358 5344 5331 5322 5315 5310 5308 5310 5315 5325
5807 5800 5793 5786 5778 5770 5761 5752 5743 5733 5723 5712 5699 5686 5673 5659 5644 5628 5611 5593 5573 5551 5529 5507 5487 5467 5448 5431 5413 5393 5374 5358 5347 5341 5335 5322 5311 5303 5297 5293 5293 5296 5304
5800 5793 5786 5778 5770 5762 5753 5744 5734 5724 5713 5701 5689 5675 5661 5646 5631 5614 5597 5578 5558 5536 5515 5494 5474 5454 5435 5417 5401 5385 5369 5352 5336 5324 5319 5313 5304 5294 5286 5282 5280 5281 5286
5792 5785 5778 5770 5762 5753 5745 5735 5725 5715 5703 5691 5678 5665 5650 5635 5618 5601 5583 5564 5544 5523 5502 5482 5463 5444 5426 5408 5390 5374 5360 5346 5332 5318 5308 5301 5295 5288 5279 5274 5270 5269 5272